TimeEST,TemperatureF,Dew PointF,Humidity,Sea Level PressureIn,VisibilityMPH,Wind Direction,Wind SpeedMPH,Gust SpeedMPH,PrecipitationIn,Events,Conditions,WindDirDegrees,DateUTC
12:15 AM,-1.3,-4.2,88,29.94,10.0,Calm,Calm,-,N/A,,Scattered Clouds,0,2013-01-04 05:15:00
12:35 AM,-2.2,-5.1,88,29.93,10.0,Calm,Calm,-,N/A,,Clear,0,2013-01-04 05:35:00
12:55 AM,-2.7,-5.8,87,29.93,10.0,Calm,Calm,-,N/A,,Scattered Clouds,0,2013-01-04 05:55:00
1:15 AM,-1.8,-4.9,87,29.92,10.0,Calm,Calm,-,N/A,,Mostly Cloudy,0,2013-01-04 06:15:00
1:35 AM,-0.4,-4.0,85,29.92,7.0,Calm,Calm,-,N/A,Snow,Light Snow,0,2013-01-04 06:35:00
1:55 AM,0.5,-3.1,85,29.92,7.0,Calm,Calm,-,N/A,Snow,Light Snow,0,2013-01-04 06:55:00
2:15 AM,1.4,-2.2,85,29.91,10.0,Calm,Calm,-,N/A,,Overcast,0,2013-01-04 07:15:00
2:35 AM,1.9,-2.2,83,29.91,10.0,Calm,Calm,-,N/A,,Overcast,0,2013-01-04 07:35:00
2:55 AM,1.6,-2.4,83,29.90,10.0,Calm,Calm,-,N/A,,Scattered Clouds,0,2013-01-04 07:55:00
3:15 AM,0.7,-2.9,85,29.90,10.0,Calm,Calm,-,N/A,,Scattered Clouds,0,2013-01-04 08:15:00
3:35 AM,0.1,-3.1,86,29.90,10.0,Calm,Calm,-,N/A,,Mostly Cloudy,0,2013-01-04 08:35:00
3:55 AM,1.0,-2.4,86,29.90,10.0,Calm,Calm,-,N/A,,Overcast,0,2013-01-04 08:55:00
4:15 AM,1.4,-2.2,85,29.89,10.0,Calm,Calm,-,N/A,,Overcast,0,2013-01-04 09:15:00
6:55 AM,5.4,1.2,83,29.89,4.0,Calm,Calm,-,N/A,Snow,Light Snow,0,2013-01-04 11:55:00
7:15 AM,5.7,1.6,83,29.89,5.0,Calm,Calm,-,N/A,Snow,Light Snow,0,2013-01-04 12:15:00
7:35 AM,5.5,1.6,84,29.88,4.0,Calm,Calm,-,N/A,Snow,Light Snow,0,2013-01-04 12:35:00
7:55 AM,5.4,1.4,84,29.87,7.0,Calm,Calm,-,N/A,Snow,Light Snow,0,2013-01-04 12:55:00
8:15 AM,5.4,1.8,85,29.87,7.0,Calm,Calm,-,N/A,,Mostly Cloudy,0,2013-01-04 13:15:00
8:35 AM,6.3,2.3,84,29.86,7.0,Calm,Calm,-,N/A,Snow,Light Snow,0,2013-01-04 13:35:00
8:55 AM,6.8,2.1,81,29.86,7.0,Calm,Calm,-,N/A,,Overcast,0,2013-01-04 13:55:00
9:15 AM,7.5,3.0,82,29.86,5.0,Calm,Calm,-,N/A,Snow,Light Snow,0,2013-01-04 14:15:00
9:35 AM,8.6,3.9,81,29.86,3.0,Calm,Calm,-,N/A,Snow,Light Snow,0,2013-01-04 14:35:00
9:55 AM,9.3,4.3,80,29.85,7.0,Calm,Calm,-,N/A,,Overcast,0,2013-01-04 14:55:00
10:15 AM,10.4,5.2,79,29.85,7.0,Calm,Calm,-,N/A,,Overcast,0,2013-01-04 15:15:00
10:35 AM,11.3,5.5,78,29.83,10.0,Calm,Calm,-,N/A,,Overcast,0,2013-01-04 15:35:00
10:55 AM,12.4,6.6,78,29.82,10.0,Calm,Calm,-,N/A,,Overcast,0,2013-01-04 15:55:00
11:15 AM,14.7,8.1,75,29.79,10.0,Calm,Calm,-,N/A,,Overcast,0,2013-01-04 16:15:00
11:35 AM,17.4,9.9,72,29.77,10.0,Calm,Calm,-,N/A,,Mostly Cloudy,0,2013-01-04 16:35:00
11:55 AM,19.2,11.7,72,29.75,10.0,East,3.5,-,N/A,,Scattered Clouds,100,2013-01-04 16:55:00
12:15 PM,20.8,13.1,72,29.74,10.0,East,3.5,-,N/A,,Clear,80,2013-01-04 17:15:00
12:35 PM,23.5,14.4,68,29.73,10.0,Calm,Calm,-,N/A,,Clear,0,2013-01-04 17:35:00
12:55 PM,31.3,18.9,60,29.73,10.0,West,8.1,-,N/A,,Scattered Clouds,270,2013-01-04 17:55:00
1:15 PM,33.1,19.2,57,29.73,10.0,West,8.1,17.3,N/A,,Mostly Cloudy,270,2013-01-04 18:15:00
1:35 PM,34.0,19.8,56,29.73,10.0,West,10.4,25.3,N/A,,Overcast,270,2013-01-04 18:35:00
1:55 PM,33.8,20.1,57,29.72,10.0,West,6.9,19.6,N/A,,Overcast,260,2013-01-04 18:55:00
2:15 PM,33.6,20.5,59,29.73,10.0,West,10.4,18.4,N/A,,Overcast,280,2013-01-04 19:15:00
2:35 PM,33.8,20.8,59,29.73,10.0,West,8.1,17.3,N/A,,Overcast,260,2013-01-04 19:35:00
2:55 PM,33.8,21.2,60,29.72,10.0,West,9.2,-,N/A,,Overcast,280,2013-01-04 19:55:00
3:15 PM,33.8,21.7,61,29.73,10.0,West,8.1,18.4,N/A,,Overcast,280,2013-01-04 20:15:00
3:35 PM,33.4,21.9,63,29.73,10.0,West,9.2,-,N/A,,Mostly Cloudy,280,2013-01-04 20:35:00
3:55 PM,32.9,22.1,65,29.73,10.0,West,5.8,-,N/A,,Unknown,270,2013-01-04 20:55:00
4:15 PM,32.4,22.5,67,29.73,10.0,West,5.8,-,N/A,,Unknown,270,2013-01-04 21:15:00
4:35 PM,32.2,22.6,68,29.73,10.0,West,8.1,-,N/A,,Unknown,260,2013-01-04 21:35:00
4:55 PM,32.5,22.8,67,29.73,10.0,West,8.1,-,N/A,,Unknown,270,2013-01-04 21:55:00
5:15 PM,32.4,23.0,68,29.73,10.0,West,6.9,-,N/A,,Unknown,270,2013-01-04 22:15:00
5:55 PM,32.9,23.0,67,29.73,10.0,West,8.1,-,N/A,,Unknown,270,2013-01-04 22:55:00
6:15 PM,32.9,23.0,67,29.73,10.0,West,8.1,-,N/A,,Unknown,280,2013-01-04 23:15:00
6:35 PM,33.3,23.2,67,29.73,10.0,West,8.1,-,N/A,,Unknown,280,2013-01-04 23:35:00
6:55 PM,33.4,23.0,66,29.73,10.0,West,9.2,-,N/A,,Unknown,270,2013-01-04 23:55:00
7:15 PM,33.6,23.4,66,29.73,10.0,West,9.2,17.3,N/A,,Unknown,270,2013-01-05 00:15:00
7:35 PM,33.1,23.7,68,29.73,10.0,WNW,5.8,-,N/A,,Unknown,290,2013-01-05 00:35:00
8:15 PM,33.1,23.7,68,29.73,10.0,West,8.1,-,N/A,,Unknown,280,2013-01-05 01:15:00
8:35 PM,33.3,23.7,68,29.73,10.0,West,6.9,-,N/A,,Unknown,280,2013-01-05 01:35:00
8:55 PM,33.8,23.4,66,29.73,10.0,West,8.1,-,N/A,,Unknown,280,2013-01-05 01:55:00
9:15 PM,33.8,23.5,66,29.74,10.0,West,8.1,17.3,N/A,Snow,Light Snow,280,2013-01-05 02:15:00
9:35 PM,33.8,23.5,66,29.74,10.0,West,6.9,-,N/A,Snow,Light Snow,270,2013-01-05 02:35:00
9:55 PM,33.6,23.9,68,29.73,10.0,West,10.4,16.1,N/A,,Unknown,280,2013-01-05 02:55:00
10:15 PM,33.8,23.7,67,29.74,10.0,West,9.2,-,N/A,Snow,Light Snow,270,2013-01-05 03:15:00
10:35 PM,33.4,23.9,68,29.74,10.0,West,9.2,16.1,N/A,,Unknown,270,2013-01-05 03:35:00
10:55 PM,33.3,24.3,70,29.73,10.0,West,11.5,28.8,N/A,Snow,Light Snow,270,2013-01-05 03:55:00
11:15 PM,32.9,24.6,72,29.73,10.0,WSW,11.5,19.6,N/A,,Unknown,250,2013-01-05 04:15:00
11:35 PM,32.9,24.8,72,29.73,10.0,West,13.8,25.3,N/A,Snow,Light Snow,270,2013-01-05 04:35:00
11:55 PM,32.9,25.0,73,29.74,10.0,West,9.2,16.1,N/A,,Unknown,270,2013-01-05 04:55:00